GW4477 Weather Reports


Display with metric or nautical units.
time (UTC)temp
F
wind
direction
speed
MPH
gust
MPH
rain 1hr
in
rain 24hr
in
rain mn
in
humidity
%
barometer
mb
20260505011509 75 94 1.0 6.0 0.00 0.00 0.00 26 1002.2
20260505010019 77 118 5.0 8.0 0.00 0.00 0.00 25 1002.2
20260505004516 78 81 1.0 4.0 0.00 0.00 0.00 24 1002.2
20260505003021 79 35 1.0 5.0 0.00 0.00 0.00 23 1002.3
20260505001524 80 87 2.0 6.0 0.00 0.00 0.00 22 1002.2
20260505000008 80 5 2.0 6.0 0.00 0.00 0.00 21 1002.5
20260504234514 80 81 1.0 5.0 0.00 0.00 0.00 21 1002.4
20260504233003 80 46 2.0 7.0 0.00 0.00 0.00 21 1002.4
20260504231505 81 121 3.0 9.0 0.00 0.00 0.00 20 1002.5
20260504230005 81 213 3.0 9.0 0.00 0.00 0.00 20 1002.7
20260504224506 81 26 4.0 13.0 0.00 0.00 0.00 20 1002.8
20260504223003 81 101 1.0 8.0 0.00 0.00 0.00 20 1003.0
20260504221509 82 352 4.0 9.0 0.00 0.00 0.00 20 1002.9
20260504220008 83 128 8.0 13.0 0.00 0.00 0.00 20 1002.9
20260504214509 82 88 3.0 8.0 0.00 0.00 0.00 21 1003.1
20260504213008 82 128 4.0 11.0 0.00 0.00 0.00 22 1003.0
20260504211503 82 100 8.0 14.0 0.00 0.00 0.00 22 1003.0
20260504210006 83 139 7.0 11.0 0.00 0.00 0.00 21 1003.2
20260504204511 83 166 2.0 6.0 0.00 0.00 0.00 17 1003.5
20260504203012 84 197 2.0 6.0 0.00 0.00 0.00 16 1003.5
20260504201512 84 234 2.0 6.0 0.00 0.00 0.00 17 1003.7
20260504200003 86 188 3.0 6.0 0.00 0.00 0.00 15 1003.8
20260504194510 85 113 4.0 9.0 0.00 0.00 0.00 14 1004.0
20260504193015 85 180 3.0 7.0 0.00 0.00 0.00 16 1004.2
20260504191527 85 121 2.0 6.0 0.00 0.00 0.00 17 1004.4
20260504190016 85 223 3.0 7.0 0.00 0.00 0.00 18 1004.6
20260504184508 86 349 0.0 2.0 0.00 0.00 0.00 18 1004.8
20260504183014 86 350 1.0 3.0 0.00 0.00 0.00 19 1005.1
20260504181518 86 256 1.0 3.0 0.00 0.00 0.00 19 1005.3
20260504180020 85 304 1.0 5.0 0.00 0.00 0.00 19 1005.6
20260504174519 84 338 0.0 9.0 0.00 0.00 0.00 23 1005.9
20260504173010 85 289 0.0 4.0 0.00 0.00 0.00 25 1006.0
20260504171515 84 256 1.0 5.0 0.00 0.00 0.00 26 1006.3
20260504081520 50 271 0.0 2.0 0.00 0.00 0.00 53 1006.9
20260504050022 60 138 0.0 3.0 0.00 0.00 0.00 36 1007.8
20260504044522 60 89 0.0 2.0 0.00 0.00 0.00 36 1007.9
20260504043008 61 146 0.0 2.0 0.00 0.00 0.00 35 1008.0
20260504041514 61 98 0.0 2.0 0.00 0.00 0.00 32 1008.3
20260504040036 62 159 0.0 2.0 0.00 0.00 0.00 31 1008.3
20260504034524 62 163 0.0 0.0 0.00 0.00 0.00 32 1008.4
20260504033028 63 163 0.0 2.0 0.00 0.00 0.00 32 1008.5
20260504031509 64 163 0.0 2.0 0.00 0.00 0.00 30 1008.4
20260504030016 66 130 0.0 2.0 0.00 0.00 0.00 29 1008.2
20260504024522 68 130 1.0 5.0 0.00 0.00 0.00 27 1008.1
20260504023026 71 53 0.0 2.0 0.00 0.00 0.00 25 1008.0
20260504021528 73 33 1.0 5.0 0.00 0.00 0.00 23 1007.9
20260504020013 74 11 3.0 5.0 0.00 0.00 0.00 21 1008.0
20260504014525 75 360 2.0 5.0 0.00 0.00 0.00 19 1007.7
20260504013025 77 352 2.0 5.0 0.00 0.00 0.00 19 1007.7
20260504011525 78 19 4.0 7.0 0.00 0.00 0.00 17 1007.5